#
# The Tor Project
#
# URL: https://metrics.torproject.org/bandwidth.csv?start=2015-06-01&end=2021-08-01
#
date,advbw,bwhist
2015-06-01,128.524841056,54.801593504
2015-06-02,129.068427272,55.185335688
2015-06-03,129.192916992,55.133038972
2015-06-04,129.853674224,55.444415272
2015-06-05,129.94319796,54.674091012
2015-06-06,130.784089288,53.968427128
2015-06-07,131.092834832,55.035048336
2015-06-08,130.647168832,55.877520148
2015-06-09,129.729329672,53.95344912
2015-06-10,129.780516592,53.16340762
2015-06-11,129.940312424,53.243522044
2015-06-12,130.257306008,53.367579408
2015-06-13,128.672898696,53.486496084
2015-06-14,128.26179788,54.676562376
2015-06-15,129.1082016,54.508100176
2015-06-16,128.836727944,53.498876268
2015-06-17,128.67315652,54.255340756
2015-06-18,129.075725776,53.006831344
2015-06-19,128.39044636,52.868142836
2015-06-20,128.46400512,52.8675542
2015-06-21,129.57667788,52.608171476
2015-06-22,127.709723632,53.03269736
2015-06-23,127.826899936,53.14544792
2015-06-24,129.466233168,52.14672182
2015-06-25,129.610715776,51.636496884
2015-06-26,130.145947784,53.463247108
2015-06-27,131.682035264,53.0683756
2015-06-28,132.187144208,52.197890336
2015-06-29,130.40975496,54.0890021
2015-06-30,134.105455696,53.577174896
2015-07-01,133.201243688,52.500958492
2015-07-02,133.608826792,52.763155084
2015-07-03,133.89901284,52.820140912
2015-07-04,134.332681576,52.402051072
2015-07-05,133.328795744,52.502158692
2015-07-06,133.032797032,55.204467076
2015-07-07,133.371718408,55.012000508
2015-07-08,132.663695256,52.993927172
2015-07-09,130.98819316,53.209048504
2015-07-10,130.744877144,53.277853424
2015-07-11,131.221374608,52.999599504
2015-07-12,132.458742792,53.855576892
2015-07-13,133.041512464,54.70060756
2015-07-14,133.376749248,55.324826556
2015-07-15,132.592398728,54.228277664
2015-07-16,133.215082704,54.82429686
2015-07-17,133.0505228,55.769386872
2015-07-18,134.384418408,56.57617646
2015-07-19,133.709843304,56.348113828
2015-07-20,133.409872872,58.184266216
2015-07-21,132.810728896,56.687179692
2015-07-22,131.815666936,57.574404088
2015-07-23,131.861419408,57.212326256
2015-07-24,132.752294832,57.846770272
2015-07-25,132.798128472,57.881906852
2015-07-26,132.79226872,57.472629992
2015-07-27,132.94851468,58.436310916
2015-07-28,131.831897976,57.279259528
2015-07-29,131.178259184,58.251339844
2015-07-30,131.714428144,56.98518024
2015-07-31,134.114365608,57.11445298
2015-08-01,131.643073392,57.3268377
2015-08-02,132.01280816,57.044000444
2015-08-03,135.61704168,54.131325812
2015-08-04,129.954702432,53.862285328
2015-08-05,129.856176024,55.317544272
2015-08-06,134.524545136,57.488775192
2015-08-07,131.594005064,56.792163472
2015-08-08,131.424937888,57.744373836
2015-08-09,132.5484516,57.703080636
2015-08-10,131.254637176,57.914007864
2015-08-11,130.536499336,57.654527716
2015-08-12,130.638452384,59.369903696
2015-08-13,131.657961344,59.163662828
2015-08-14,132.41661852,60.018394528
2015-08-15,133.430444152,61.008887548
2015-08-16,133.803147224,59.923230428
2015-08-17,132.007827408,60.131253336
2015-08-18,131.270758984,60.773610872
2015-08-19,130.680015072,60.987456224
2015-08-20,131.546264944,61.40696684
2015-08-21,131.987062328,60.343424012
2015-08-22,131.927970832,59.964291576
2015-08-23,132.277523744,60.14946312
2015-08-24,131.481151784,59.87993994
2015-08-25,131.207960768,60.790739036
2015-08-26,133.526889152,60.30837508
2015-08-27,132.524516128,61.15493038
2015-08-28,134.193608816,63.31872214
2015-08-29,136.286668768,62.805323452
2015-08-30,136.519647288,62.763505536
2015-08-31,136.827126384,64.23027488
2015-09-01,138.133534352,63.280204992
2015-09-02,138.786846376,63.047017208
2015-09-03,139.638247976,63.289693392
2015-09-04,141.691769384,63.906343536
2015-09-05,142.371643744,63.673129412
2015-09-06,142.930835216,62.780749788
2015-09-07,142.648552768,62.908725668
2015-09-08,142.245247528,63.762024264
2015-09-09,141.310410504,63.10523958
2015-09-10,140.34509724,63.571678664
2015-09-11,139.42671528,64.323495248
2015-09-12,141.132864304,64.34773388
2015-09-13,141.273512624,64.71561564
2015-09-14,141.719676064,66.152460564
2015-09-15,144.368865952,65.507872556
2015-09-16,145.048324952,65.096592468
2015-09-17,143.539534472,62.969208968
2015-09-18,142.248735224,62.014968668
2015-09-19,143.158864368,64.428657964
2015-09-20,144.581939904,64.365384692
2015-09-21,143.318790672,64.534285408
2015-09-22,142.758212984,64.278816596
2015-09-23,143.68121744,63.858411412
2015-09-24,143.78169272,63.721697868
2015-09-25,143.657352128,63.923556348
2015-09-26,145.47999324,64.305575336
2015-09-27,144.812100048,64.172601444
2015-09-28,142.281639872,65.09664826
2015-09-29,142.28979572,64.475670856
2015-09-30,142.580806384,64.00577198
2015-10-01,143.254327416,63.905491448
2015-10-02,144.2044168,65.148613836
2015-10-03,145.321775816,66.046968044
2015-10-04,145.98281368,65.360610252
2015-10-05,144.963305896,65.449796128
2015-10-06,143.096394224,64.567814536
2015-10-07,141.6899094,65.29797534
2015-10-08,143.038433096,65.2267115
2015-10-09,143.752526888,65.703155044
2015-10-10,144.325149488,65.947540664
2015-10-11,144.879756696,66.069294168
2015-10-12,142.799936136,65.280689744
2015-10-13,141.704817224,64.5095936
2015-10-14,141.467466576,63.361948504
2015-10-15,141.415038496,63.79987386
2015-10-16,141.792684248,65.34272196
2015-10-17,143.103480504,65.7921309
2015-10-18,143.226307208,64.36060202
2015-10-19,142.443643104,65.33832104
2015-10-20,142.93894608,66.041436364
2015-10-21,143.36131304,66.094562928
2015-10-22,144.147132056,64.95591632
2015-10-23,144.420450912,66.14946074
2015-10-24,146.248897424,66.873788172
2015-10-25,147.0024384,66.614119228
2015-10-26,146.801653152,68.061954604
2015-10-27,146.702181912,68.161511624
2015-10-28,146.896536312,68.284334124
2015-10-29,146.025868376,68.19450592
2015-10-30,146.376104536,68.38400068
2015-10-31,148.88059084,68.86330274
2015-11-01,150.743688904,68.991977088
2015-11-02,150.384261504,68.884583976
2015-11-03,149.080850072,67.662327224
2015-11-04,147.117137984,67.877196664
2015-11-05,147.08036368,68.60544558
2015-11-06,147.918115856,69.573976036
2015-11-07,148.518894344,70.375696828
2015-11-08,149.103383888,69.592433888
2015-11-09,148.400635248,70.19520644
2015-11-10,146.960306272,69.293374936
2015-11-11,147.513507296,69.752874804
2015-11-12,149.923978904,70.582228328
2015-11-13,150.923998328,70.38635648
2015-11-14,150.56878524,69.595636892
2015-11-15,150.527636984,70.011756768
2015-11-16,150.509524392,70.10399518
2015-11-17,150.232195488,68.987661752
2015-11-18,150.675296176,70.782081452
2015-11-19,150.867009584,71.194643704
2015-11-20,150.121712904,71.784591536
2015-11-21,150.382339968,71.822411512
2015-11-22,150.93739472,71.26841762
2015-11-23,150.571716376,70.075760376
2015-11-24,151.071430912,67.259731268
2015-11-25,,69.57421356
2015-11-26,149.256106792,68.762769068
2015-11-27,149.971147416,69.536059828
2015-11-28,150.67820276,69.097306192
2015-11-29,151.109496088,69.116045856
2015-11-30,148.438607496,67.344939064
2015-12-01,150.227081992,69.79084856
2015-12-02,152.60628572,69.532358532
2015-12-03,152.927903224,70.084210176
2015-12-04,155.338640976,69.769559212
2015-12-05,156.026031984,70.221410152
2015-12-06,155.465406448,67.883186728
2015-12-07,,70.12336878
2015-12-08,155.927798592,70.314381136
2015-12-09,156.825828592,69.371376044
2015-12-10,178.969568184,68.647873212
2015-12-11,157.196261224,71.642539784
2015-12-12,157.057374088,71.134401856
2015-12-13,157.537639848,69.861947344
2015-12-14,155.974480488,69.9561006
2015-12-15,156.316062216,70.5224305
2015-12-16,157.286350376,71.035959728
2015-12-17,157.954527208,70.255139088
2015-12-18,157.476609592,68.321745108
2015-12-19,,70.912207708
2015-12-20,158.012877584,69.887245644
2015-12-21,157.881509104,71.997078864
2015-12-22,158.908868792,71.422113572
2015-12-23,157.946026176,71.32043862
2015-12-24,157.933227992,67.944826752
2015-12-25,155.98277596,66.442902872
2015-12-26,156.48400076,69.861194216
2015-12-27,158.566526808,71.272073748
2015-12-28,159.112525296,72.66142966
2015-12-29,160.431889608,72.365937432
2015-12-30,158.632233384,70.261852584
2015-12-31,158.587872656,67.057644288
2016-01-01,157.736604872,69.916829208
2016-01-02,160.878040128,71.571088856
2016-01-03,162.323424488,70.82662644
2016-01-04,161.888790688,72.06482106
2016-01-05,165.432432264,73.144650048
2016-01-06,166.588098336,72.827887352
2016-01-07,166.03678716,73.450311724
2016-01-08,167.154975136,73.287754112
2016-01-09,167.953319624,73.972734888
2016-01-10,166.67413284,71.8878353
2016-01-11,164.215474272,72.876028748
2016-01-12,165.784683384,72.42539082
2016-01-13,165.828816992,72.67710588
2016-01-14,165.52061996,73.07930446
2016-01-15,166.536588888,72.814997036
2016-01-16,166.783423168,74.003061376
2016-01-17,166.096199096,74.621959196
2016-01-18,165.801388768,75.744011512
2016-01-19,166.01236792,72.80495278
2016-01-20,164.818732688,71.83686328
2016-01-21,163.280723496,72.045297444
2016-01-22,162.694788208,72.260561688
2016-01-23,162.645517464,73.609621244
2016-01-24,162.761055936,72.92940158
2016-01-25,162.984082392,73.935646416
2016-01-26,191.404215808,72.148314776
2016-01-27,197.779656296,73.000922016
2016-01-28,198.22897164,73.118641916
2016-01-29,199.33002972,74.288689208
2016-01-30,201.303971576,76.269261912
2016-01-31,194.64900044,75.852749516
2016-02-01,168.780399752,76.289649312
2016-02-02,171.249751616,76.021338852
2016-02-03,177.890197648,74.44719006
2016-02-04,170.64838016,74.66415736
2016-02-05,171.018016832,74.697260696
2016-02-06,171.303967352,75.9163024
2016-02-07,171.994770816,75.817672348
2016-02-08,172.15836336,76.013303912
2016-02-09,171.206031368,74.080344688
2016-02-10,169.573603528,74.614937016
2016-02-11,170.824093872,73.877474608
2016-02-12,170.387177648,74.429688596
2016-02-13,169.754836024,77.014517768
2016-02-14,170.020522088,74.553245748
2016-02-15,168.402001736,74.11756482
2016-02-16,168.829489592,73.85125698
2016-02-17,168.182216696,73.617373372
2016-02-18,168.542607904,73.103605216
2016-02-19,166.869357752,73.690352884
2016-02-20,168.146941768,75.02215862
2016-02-21,168.436338416,72.991853264
2016-02-22,165.025042904,70.893623856
2016-02-23,164.122038368,70.637302632
2016-02-24,164.771719232,71.349414184
2016-02-25,165.222635496,70.894377992
2016-02-26,166.005285376,71.52284036
2016-02-27,165.853750752,73.041122516
2016-02-28,167.072315616,74.484113448
2016-02-29,168.855243896,74.139778536
2016-03-01,170.029934752,72.569707108
2016-03-02,169.835143904,72.952566256
2016-03-03,169.61795964,72.557015208
2016-03-04,168.616715616,72.89766142
2016-03-05,169.755684464,74.479145504
2016-03-06,170.833919928,74.701735064
2016-03-07,170.481827128,72.776335424
2016-03-08,169.805708656,70.22890214
2016-03-09,167.894327568,74.795833252
2016-03-10,169.142856176,74.475959364
2016-03-11,167.153730176,75.624458664
2016-03-12,167.552407112,75.706541208
2016-03-13,165.851062424,74.806420064
2016-03-14,163.65278512,74.133730056
2016-03-15,164.575995712,73.456010476
2016-03-16,164.981236936,73.797778848
2016-03-17,164.64936324,73.133250936
2016-03-18,164.4299516,71.638463568
2016-03-19,164.483558832,75.168779764
2016-03-20,165.477665824,73.997727956
2016-03-21,164.310131992,73.586816672
2016-03-22,164.631855768,73.333599624
2016-03-23,163.918926736,72.97498932
2016-03-24,163.727209872,72.728179712
2016-03-25,163.933467768,73.378728612
2016-03-26,164.220745624,74.468366436
2016-03-27,165.41471488,73.416273472
2016-03-28,164.856709384,77.039932924
2016-03-29,166.181014224,74.36837774
2016-03-30,165.250346064,71.307031628
2016-03-31,164.761700944,70.92436586
2016-04-01,166.278029688,71.128974796
2016-04-02,166.873259432,72.120203756
2016-04-03,166.859331592,72.062844496
2016-04-04,166.487017888,71.49219154
2016-04-05,166.433497736,70.55760052
2016-04-06,167.007935496,70.537580092
2016-04-07,166.266183648,70.080921228
2016-04-08,167.498749136,70.635438104
2016-04-09,168.043617328,71.045938956
2016-04-10,168.251455064,70.430485764
2016-04-11,167.985853216,70.892068944
2016-04-12,168.02642172,68.817845208
2016-04-13,165.442134736,68.125918468
2016-04-14,165.088633968,67.826404536
2016-04-15,164.977256384,68.860960356
2016-04-16,165.672363664,70.444684636
2016-04-17,166.731391648,69.107021636
2016-04-18,166.05941888,69.415560988
2016-04-19,166.233972464,69.617731068
2016-04-20,165.608716888,70.755018312
2016-04-21,166.946880208,70.840439168
2016-04-22,167.607131752,71.05778762
2016-04-23,169.168568136,72.444961624
2016-04-24,170.017857136,72.218149088
2016-04-25,169.579458952,71.33743354
2016-04-26,169.988753616,70.3591844
2016-04-27,167.845960368,71.666072356
2016-04-28,168.74981156,71.310891936
2016-04-29,168.107529888,72.696265468
2016-04-30,168.869563664,72.398616788
2016-05-01,169.5798896,70.82097656
2016-05-02,168.782914,71.36875034
2016-05-03,169.307385384,70.995729624
2016-05-04,170.07836256,70.504917628
2016-05-05,170.834156656,71.509016028
2016-05-06,171.438970968,70.37686066
2016-05-07,171.588844576,68.927039688
2016-05-08,171.364117808,68.691922912
2016-05-09,172.165837888,68.807871972
2016-05-10,171.85610476,68.842396764
2016-05-11,169.25574792,68.546652196
2016-05-12,169.116265248,69.9566067
2016-05-13,170.945449328,70.401050672
2016-05-14,172.101478928,70.512121192
2016-05-15,172.860174024,70.090991216
2016-05-16,172.431256176,72.11245986
2016-05-17,172.63097016,68.976941
2016-05-18,169.1892652,69.32851004
2016-05-19,168.96653708,71.209876568
2016-05-20,169.759189176,70.940049848
2016-05-21,169.649178944,70.436211204
2016-05-22,168.498023552,69.671402516
2016-05-23,167.692717736,69.73284938
2016-05-24,167.922363296,69.452630096
2016-05-25,170.129956272,68.372473388
2016-05-26,170.65218308,69.405444152
2016-05-27,171.297509088,69.823073688
2016-05-28,172.051578392,71.062207444
2016-05-29,172.08698328,70.43982844
2016-05-30,171.062419848,70.6054179
2016-05-31,173.24065284,73.178285568
2016-06-01,176.825748584,72.741145092
2016-06-02,175.862966008,72.143286144
2016-06-03,176.228223784,71.75788874
2016-06-04,177.2368126,72.583969432
2016-06-05,178.23192836,72.290828404
2016-06-06,177.563101448,72.458604464
2016-06-07,177.858235008,70.909695512
2016-06-08,180.511761888,72.35749928
2016-06-09,180.72968368,70.881055684
2016-06-10,179.212106944,70.689588664
2016-06-11,179.828813112,72.08854374
2016-06-12,180.542259736,71.693115284
2016-06-13,179.07240644,72.390278452
2016-06-14,178.068930736,71.6712235
2016-06-15,179.942601848,70.93488432
2016-06-16,179.004390472,71.512214224
2016-06-17,178.898384496,71.214122072
2016-06-18,178.871883304,71.637195644
2016-06-19,178.848015736,72.885012308
2016-06-20,179.255565544,73.99253618
2016-06-21,179.339341752,72.903494464
2016-06-22,178.292226688,72.901974472
2016-06-23,181.461045256,72.041821652
2016-06-24,179.556347528,71.898092228
2016-06-25,181.618310584,72.421714156
2016-06-26,180.700086464,72.4627962
2016-06-27,179.965278312,72.608435844
2016-06-28,179.657836848,72.015871716
2016-06-29,178.894424304,72.6889702
2016-06-30,179.840329264,72.945677816
2016-07-01,181.955527152,71.921710604
2016-07-02,182.552596408,72.272515232
2016-07-03,181.433973,72.419344084
2016-07-04,182.002047248,73.620593352
2016-07-05,184.078300192,73.40206762
2016-07-06,183.816154768,74.782631912
2016-07-07,184.153245568,74.27826054
2016-07-08,183.998109568,75.472546968
2016-07-09,185.269940384,76.32692338
2016-07-10,186.886085976,76.332024732
2016-07-11,191.463656312,76.665820624
2016-07-12,193.435099448,74.631434784
2016-07-13,187.684371392,74.463541112
2016-07-14,184.60400996,77.096071316
2016-07-15,186.012774048,76.139647916
2016-07-16,186.398341288,75.80025782
2016-07-17,185.622892832,73.847527848
2016-07-18,185.207572936,75.647778548
2016-07-19,184.615184568,74.303232692
2016-07-20,184.723331064,72.6391236
2016-07-21,185.064849144,72.637665016
2016-07-22,184.134933784,73.226665164
2016-07-23,183.839085496,73.556180916
2016-07-24,184.973559032,74.284603364
2016-07-25,184.334760376,75.37858018
2016-07-26,185.430601384,74.181012
2016-07-27,185.574996,73.353787896
2016-07-28,185.816612768,73.473553528
2016-07-29,186.400236488,74.77540608
2016-07-30,187.335321968,75.727776124
2016-07-31,188.169125296,76.768007692
2016-08-01,188.19136972,76.802087732
2016-08-02,188.265652936,74.270668452
2016-08-03,187.61027376,73.605394108
2016-08-04,187.281148248,73.586800132
2016-08-05,188.23536572,75.55801942
2016-08-06,191.738503872,76.186267536
2016-08-07,191.296513248,75.362170492
2016-08-08,189.819033048,75.366800596
2016-08-09,188.090263376,75.023516988
2016-08-10,186.804629712,74.428350492
2016-08-11,187.201473368,74.972936888
2016-08-12,185.993674288,75.46357382
2016-08-13,186.489359408,72.8360043
2016-08-14,185.908359936,72.909215668
2016-08-15,186.856619432,73.535154388
2016-08-16,188.646143248,72.345799988
2016-08-17,186.591810288,71.32574402
2016-08-18,185.807431384,71.978128952
2016-08-19,185.249576632,72.03865048
2016-08-20,185.12659176,74.510149348
2016-08-21,187.2369794,74.758088284
2016-08-22,187.029537136,73.71812548
2016-08-23,186.489359248,74.638561172
2016-08-24,186.97870864,74.635758444
2016-08-25,185.399597104,73.418419444
2016-08-26,184.004229728,74.848396848
2016-08-27,184.575318008,75.972682048
2016-08-28,186.087932608,75.849373936
2016-08-29,186.602818592,76.640725364
2016-08-30,187.058049128,76.114070116
2016-08-31,186.491841488,75.709493104
2016-09-01,185.97655504,73.391091984
2016-09-02,187.135675816,75.188662644
2016-09-03,189.451543488,76.436260052
2016-09-04,192.747053856,75.649461216
2016-09-05,191.2350436,74.90641588
2016-09-06,190.164454864,76.41673722
2016-09-07,192.521737056,77.238504656
2016-09-08,194.81008532,78.369504656
2016-09-09,194.614188304,78.062201384
2016-09-10,193.818598976,78.535520968
2016-09-11,192.953562032,78.24405372
2016-09-12,192.98509248,78.640970652
2016-09-13,193.825507056,77.279669648
2016-09-14,194.315766536,78.420353528
2016-09-15,194.4498772,79.737338208
2016-09-16,194.905877992,81.971793988
2016-09-17,194.958954272,82.648773756
2016-09-18,196.813736336,80.681801136
2016-09-19,197.549485544,79.754425188
2016-09-20,197.868468176,77.267882216
2016-09-21,198.386661976,78.725315704
2016-09-22,198.22530624,79.826999648
2016-09-23,199.316967504,80.688704652
2016-09-24,201.610718032,82.57199628
2016-09-25,202.82125884,83.846278444
2016-09-26,202.750229632,83.866144756
2016-09-27,201.986118952,83.460208276
2016-09-28,201.06200452,83.890743528
2016-09-29,202.000536,83.500116012
2016-09-30,202.61640724,85.054037952
2016-10-01,203.39818472,86.786208696
2016-10-02,205.81230152,87.406193044
2016-10-03,206.442977168,85.055681132
2016-10-04,205.450330504,84.710192104
2016-10-05,204.056904896,84.70605896
2016-10-06,203.56925656,84.224363076
2016-10-07,200.988245472,84.72998464
2016-10-08,201.813876536,87.084744008
2016-10-09,203.03217012,85.463892768
2016-10-10,202.654468,84.90715028
2016-10-11,201.438591176,83.68646006
2016-10-12,199.56617028,81.820630768
2016-10-13,200.165837896,82.89225754
2016-10-14,199.303644072,85.058734028
2016-10-15,202.469431208,86.715562568
2016-10-16,204.256059936,86.307108216
2016-10-17,203.117628448,84.020889168
2016-10-18,201.44363676,82.55100222
2016-10-19,201.277065048,81.812661976
2016-10-20,201.913455328,81.751881596
2016-10-21,201.113220328,84.473076864
2016-10-22,201.666257696,85.969867288
2016-10-23,202.47305248,86.603264496
2016-10-24,204.040936,86.497446724
2016-10-25,203.72382116,81.825868892
2016-10-26,200.82753688,83.997974996
2016-10-27,202.055943024,84.712352528
2016-10-28,203.417210872,85.9699694
2016-10-29,203.764092096,86.704564428
2016-10-30,206.905202784,84.072879068
2016-10-31,205.783321168,85.916837036
2016-11-01,207.372023336,84.436515124
2016-11-02,207.975786736,84.505758724
2016-11-03,209.298186192,85.62875962
2016-11-04,209.522399152,88.249758288
2016-11-05,209.3478102,89.738230012
2016-11-06,211.250595624,87.366153948
2016-11-07,210.763836064,86.097960552
2016-11-08,209.41920324,85.032728556
2016-11-09,207.08412932,83.40208646
2016-11-10,205.98347164,86.470485988
2016-11-11,207.935543624,88.322788092
2016-11-12,207.87716656,88.963620428
2016-11-13,207.490039664,87.790825332
2016-11-14,207.91794392,86.687428004
2016-11-15,208.413880264,85.56644374
2016-11-16,205.75485544,86.660533536
2016-11-17,206.60426324,84.758234668
2016-11-18,207.11762776,84.898768156
2016-11-19,206.71295756,86.164768212
2016-11-20,208.336708256,85.71292062
2016-11-21,210.001358656,84.052452916
2016-11-22,208.857970896,85.799134636
2016-11-23,206.865000032,85.924110396
2016-11-24,207.456815528,85.089622576
2016-11-25,208.364884352,84.339161324
2016-11-26,208.57742124,86.504068996
2016-11-27,206.876486024,86.974660116
2016-11-28,207.248682056,87.244892092
2016-11-29,208.46354648,85.609029916
2016-11-30,206.692350128,85.052181064
2016-12-01,207.20823632,84.479927736
2016-12-02,207.619165712,84.102550068
2016-12-03,210.463481648,87.1971109
2016-12-04,216.614152048,88.61204156
2016-12-05,214.781019016,87.681648524
2016-12-06,213.221977168,88.44126654
2016-12-07,213.52322404,87.674155804
2016-12-08,213.006686784,86.93695726
2016-12-09,210.986180224,87.485131364
2016-12-10,212.281935616,89.925704528
2016-12-11,215.120004624,89.766841056
2016-12-12,215.431981224,86.772536744
2016-12-13,213.03230804,83.99198756
2016-12-14,209.100627176,84.059387692
2016-12-15,208.846123744,83.676444812
2016-12-16,208.348662208,84.905043768
2016-12-17,209.325183928,86.195408076
2016-12-18,211.459169528,85.797231736
2016-12-19,210.116154968,86.842022604
2016-12-20,209.889884776,86.573336312
2016-12-21,210.34637624,86.384348512
2016-12-22,210.653341528,87.222659884
2016-12-23,212.017601808,88.178542184
2016-12-24,212.855900664,85.969738236
2016-12-25,212.537758848,81.34246592
2016-12-26,211.429192848,87.146049892
2016-12-27,213.17625676,90.280532608
2016-12-28,216.587886136,87.860927536
2016-12-29,216.675973832,91.099353848
2016-12-30,216.140183472,91.157185056
2016-12-31,217.16074704,83.66654512
2017-01-01,216.681645448,85.382077608
2017-01-02,217.069162448,90.158726016
2017-01-03,219.343995488,91.687642188
2017-01-04,219.861485256,91.364573656
2017-01-05,219.589728312,90.770082208
2017-01-06,221.366942408,92.046785612
2017-01-07,223.492050488,92.856241204
2017-01-08,224.1235812,93.773784404
2017-01-09,223.875923536,95.692166068
2017-01-10,225.00381412,94.142370792
2017-01-11,223.850839104,90.483658836
2017-01-12,222.74834172,88.997203248
2017-01-13,221.909376216,90.82525852
2017-01-14,222.894334128,92.312484444
2017-01-15,222.733350528,93.0681951
2017-01-16,223.383000752,93.068101576
2017-01-17,223.89834284,91.396869348
2017-01-18,224.680327456,92.092543056
2017-01-19,224.450892808,92.069957944
2017-01-20,225.473147696,93.702384088
2017-01-21,225.97737688,94.79583002
2017-01-22,226.479617016,96.77623838
2017-01-23,227.081464424,93.302935984
2017-01-24,227.484002016,93.704163232
2017-01-25,227.19466236,92.633401448
2017-01-26,226.984113016,90.603758244
2017-01-27,225.151627648,91.982531984
2017-01-28,224.13852492,94.068339748
2017-01-29,225.785602464,96.881216664
2017-01-30,226.884115896,97.557603672
2017-01-31,226.570007024,96.022150036
2017-02-01,225.86488324,94.041208844
2017-02-02,223.61549748,93.891627704
2017-02-03,222.995474888,93.72924534
2017-02-04,224.988558288,97.367274164
2017-02-05,226.98038356,97.700814868
2017-02-06,226.08076824,96.13176726
2017-02-07,227.409824848,95.291108164
2017-02-08,225.831902304,93.781590564
2017-02-09,223.35381972,93.496287436
2017-02-10,222.27970732,94.07852032
2017-02-11,223.168694368,96.66254588
2017-02-12,225.104361312,97.344755848
2017-02-13,224.26179632,96.612078708
2017-02-14,225.027570528,92.953700632
2017-02-15,222.272220504,93.32591786
2017-02-16,222.167888688,94.20600582
2017-02-17,224.140576088,95.125019856
2017-02-18,227.46654212,99.129542844
2017-02-19,229.72546628,99.174753848
2017-02-20,227.998656048,96.395426296
2017-02-21,227.121261792,95.945284
2017-02-22,225.489218352,95.178497204
2017-02-23,223.745956312,95.309145496
2017-02-24,223.116117744,94.401489132
2017-02-25,222.374887312,96.81680718
2017-02-26,223.924523208,97.852200332
2017-02-27,223.718237208,95.547921896